TimeCEST,TemperatureF,Dew PointF,Humidity,Sea Level PressureIn,VisibilityMPH,Wind Direction,Wind SpeedMPH,Gust SpeedMPH,PrecipitationIn,Events,Conditions,WindDirDegrees,DateUTC
12:25 AM,62.6,55.4,77,30.04,6.2,SW,18.4,-,N/A,,Unknown,220,2013-06-30 22:25:00
12:55 AM,60.8,55.4,82,30.04,6.2,SW,13.8,-,N/A,,Unknown,230,2013-06-30 22:55:00
1:25 AM,59.0,55.4,88,30.04,6.2,WSW,13.8,-,N/A,,Unknown,240,2013-06-30 23:25:00
1:55 AM,59.0,55.4,88,30.04,6.2,SW,10.4,-,N/A,,Unknown,230,2013-06-30 23:55:00
2:00 AM,58,55,87,30.05,12,SW,8.9,,,,Partly Cloudy,230,2013-07-01 00:00:00
2:25 AM,59.0,55.4,88,30.04,6.2,WSW,15.0,-,N/A,,Mostly Cloudy,240,2013-07-01 00:25:00
2:55 AM,59.0,55.4,88,30.04,6.2,WSW,13.8,-,N/A,,Overcast,240,2013-07-01 00:55:00
3:25 AM,59.0,57.2,94,30.04,5.0,WSW,10.4,-,N/A,,Overcast,250,2013-07-01 01:25:00
3:55 AM,59.0,55.4,88,30.01,4.3,WSW,10.4,-,N/A,,Overcast,250,2013-07-01 01:55:00
4:25 AM,57.2,55.4,94,30.01,5.0,WSW,10.4,-,N/A,,Overcast,250,2013-07-01 02:25:00
4:55 AM,57.2,55.4,94,30.01,5.0,WSW,11.5,-,N/A,,Overcast,250,2013-07-01 02:55:00
5:00 AM,57,55,89,30.02,5,WSW,11.2,,,,Mist,250,2013-07-01 03:00:00
5:25 AM,57.2,55.4,94,30.01,5.0,WSW,10.4,-,N/A,,Mostly Cloudy,250,2013-07-01 03:25:00
5:55 AM,57.2,55.4,94,30.01,5.0,WSW,11.5,-,N/A,,Overcast,240,2013-07-01 03:55:00
6:25 AM,57.2,55.4,94,30.01,5.6,WSW,10.4,-,N/A,,Mostly Cloudy,240,2013-07-01 04:25:00
6:55 AM,57.2,55.4,94,30.01,6.2,WSW,11.5,-,N/A,,Mostly Cloudy,240,2013-07-01 04:55:00
7:25 AM,59.0,55.4,88,30.01,6.2,WSW,10.4,-,N/A,,Mostly Cloudy,240,2013-07-01 05:25:00
7:55 AM,59.0,53.6,82,30.01,6.2,WSW,12.7,-,N/A,,Mostly Cloudy,250,2013-07-01 05:55:00
8:00 AM,58,55,85,30.04,9,WSW,13.4,,,,Partly Cloudy,240,2013-07-01 06:00:00
8:25 AM,59.0,53.6,82,30.01,6.2,WSW,15.0,-,N/A,,Mostly Cloudy,250,2013-07-01 06:25:00
8:55 AM,59.0,53.6,82,30.04,6.2,WSW,11.5,-,N/A,,Overcast,240,2013-07-01 06:55:00
9:25 AM,60.8,55.4,82,30.04,6.2,WSW,11.5,-,N/A,,Overcast,240,2013-07-01 07:25:00
9:55 AM,60.8,53.6,77,30.04,6.2,WSW,10.4,-,N/A,,Overcast,250,2013-07-01 07:55:00
10:25 AM,60.8,53.6,77,30.04,6.2,West,12.7,-,N/A,,Overcast,260,2013-07-01 08:25:00
10:55 AM,60.8,53.6,77,30.04,6.2,West,11.5,-,N/A,,Mostly Cloudy,260,2013-07-01 08:55:00
11:00 AM,61,54,72,30.04,17,West,11.2,,,,Partly Cloudy,260,2013-07-01 09:00:00
11:25 AM,60.8,55.4,82,30.04,6.2,WSW,10.4,-,N/A,,Mostly Cloudy,250,2013-07-01 09:25:00
11:55 AM,62.6,53.6,72,30.04,6.2,West,11.5,-,N/A,,Mostly Cloudy,260,2013-07-01 09:55:00
12:25 PM,62.6,53.6,72,30.04,6.2,West,11.5,-,N/A,,Overcast,270,2013-07-01 10:25:00
12:55 PM,62.6,53.6,72,30.04,6.2,WSW,9.2,-,N/A,,Mostly Cloudy,250,2013-07-01 10:55:00
1:25 PM,64.4,53.6,68,30.04,6.2,WSW,11.5,-,N/A,,Mostly Cloudy,250,2013-07-01 11:25:00
1:55 PM,64.4,53.6,68,30.01,6.2,WSW,12.7,-,N/A,,Mostly Cloudy,250,2013-07-01 11:55:00
2:00 PM,64,54,61,30.04,19,West,11.2,,,,Partly Cloudy,260,2013-07-01 12:00:00
2:25 PM,62.6,53.6,72,30.04,6.2,West,11.5,-,N/A,,Mostly Cloudy,270,2013-07-01 12:25:00
2:55 PM,64.4,53.6,68,30.01,6.2,West,11.5,-,N/A,,Mostly Cloudy,260,2013-07-01 12:55:00
3:25 PM,62.6,51.8,68,30.04,6.2,West,16.1,-,N/A,,Mostly Cloudy,260,2013-07-01 13:25:00
3:55 PM,62.6,51.8,68,30.04,6.2,WSW,16.1,-,N/A,,Mostly Cloudy,250,2013-07-01 13:55:00
4:25 PM,64.4,53.6,68,30.01,6.2,West,12.7,-,N/A,,Scattered Clouds,260,2013-07-01 14:25:00
4:55 PM,62.6,51.8,68,30.01,6.2,West,12.7,-,N/A,,Overcast,260,2013-07-01 14:55:00
5:00 PM,65,51,52,30.03,15,West,13.4,,,,Partly Cloudy,260,2013-07-01 15:00:00
5:25 PM,64.4,51.8,64,30.01,6.2,WSW,13.8,-,N/A,,Overcast,250,2013-07-01 15:25:00
5:55 PM,64.4,50.0,59,30.01,6.2,West,9.2,-,N/A,,Mostly Cloudy,280,2013-07-01 15:55:00
6:25 PM,62.6,51.8,68,30.01,6.2,West,9.2,-,N/A,,Mostly Cloudy,270,2013-07-01 16:25:00
6:55 PM,62.6,51.8,68,30.01,6.2,West,11.5,-,N/A,,Scattered Clouds,260,2013-07-01 16:55:00
7:25 PM,62.6,51.8,68,30.01,6.2,West,10.4,-,N/A,,Partly Cloudy,260,2013-07-01 17:25:00
7:55 PM,62.6,51.8,68,30.01,6.2,West,9.2,-,N/A,,Unknown,260,2013-07-01 17:55:00
8:00 PM,63,52,57,30.01,17,West,8.9,,,,Partly Cloudy,260,2013-07-01 18:00:00
8:25 PM,62.6,50.0,63,30.01,6.2,West,5.8,-,N/A,,Unknown,270,2013-07-01 18:25:00
8:55 PM,60.8,51.8,72,30.01,6.2,West,8.1,-,N/A,,Unknown,270,2013-07-01 18:55:00
9:25 PM,59.0,51.8,77,30.01,6.2,West,5.8,-,N/A,,Unknown,270,2013-07-01 19:25:00
9:55 PM,59.0,53.6,82,30.01,6.2,West,3.5,-,N/A,,Unknown,280,2013-07-01 19:55:00
10:25 PM,57.2,51.8,82,30.01,6.2,West,3.5,-,N/A,,Unknown,270,2013-07-01 20:25:00
10:55 PM,55.4,51.8,88,30.01,6.2,West,3.5,-,N/A,,Unknown,270,2013-07-01 20:55:00
11:00 PM,56,52,83,30.02,12,West,4.5,,,,Overcast,280,2013-07-01 21:00:00
11:25 PM,55.4,51.8,88,30.01,6.2,Variable,2.3,-,N/A,,Partly Cloudy,0,2013-07-01 21:25:00
11:55 PM,53.6,51.8,94,30.01,6.2,West,2.3,-,N/A,,Unknown,260,2013-07-01 21:55:00